Location: Huesca
(42.1318°N, 0.4078°W)
Time: 00:03:15
(UTC+02:00)

SR - Pass Details

Date: 21 July 2024
Orbit: 570 x 855 km, 66.7° (Epoch: 11 June)

Event Time Altitude Azimuth Distance (km) Brightness Sun altitude
Exits shadow 04:18:24 24° 147° (SSE) 1,333 ? -20.6°
Drops below altitude 10° 04:23:47 10° 52° (NE) 1,955 ? -20.1°
Enters shadow 05:22:09 -67° 212° (SSW) 12,675 ? -13.1°
Maximum altitude 06:01:36 30° 308° (NW) 1,108 ? -7.5°
